Regional Weather Roundup
Issued by NWS

Home | Current Version | Previous Version | Graphics & Text | Print | Product List | Glossary On
Versions: 1 2 3 4 5 6 7 8 9 10 11 12 13 14 15 16 17 18 19 20 21 22 23 24 25 26 27 28 29 30 31 32 33 34 35 36 37 38 39 40 41 42 43 44 45 46 47 48 49 50
000
ASUS43 KLMK 190902
RWRKY
KENTUCKY REGIONAL WEATHER ROUNDUP
NATIONAL WEATHER SERVICE LOUISVILLE KY
400 AM EST THU JAN 19 2017

NOTE "FAIR" INDICATES FEW OR NO CLOUDS BELOW 12,000 FEET
WITH NO SIGNIFICANT WEATHER AND/OR OBSTRUCTIONS TO VISIBILITY.

KYZ001>023-026-027-061>063-070>075-191000-
WESTERN AND SOUTH CENTRAL KENTUCKY

CITY           SKY/WX    TMP DP  RH WIND       PRES   REMARKS
PADUCAH        CLOUDY    46  40  79 E6        30.02F
HENDERSON      CLOUDY    41  36  81 E7        30.06F
OWENSBORO      CLOUDY    42  37  82 CALM      30.08R
HOPKINSVILLE   MOCLDY    46  43  89 NE6       30.02F
BOWLING GREEN  CLOUDY    45  40  82 CALM      30.07F
GLASGOW        NOT AVBL
$$

KYZ024-025-028>034-038-045-046-053-191000-
NORTH CENTRAL KENTUCKY

CITY           SKY/WX    TMP DP  RH WIND       PRES   REMARKS
LOUISVILLE/SDF CLOUDY    41  36  82 CALM      30.09F
LOUISVILLE/LOU CLOUDY    41  36  82 CALM      30.10S
FORT KNOX      CLOUDY    39  37  93 NE3       30.06F
$$

KYZ035>037-039>044-047>052-055>060-089>105-191000-
NORTHEAST KENTUCKY

CITY           SKY/WX    TMP DP  RH WIND       PRES   REMARKS
LEXINGTON      MOCLDY    39  36  89 SE3       30.09F
COVINGTON      CLOUDY    39  37  92 CALM      30.10F
FRANKFORT      MOCLDY    38  34  85 CALM      30.09F
$$

KYZ054-064>069-076>088-106>120-191000-
SOUTHEAST KENTUCKY

CITY           SKY/WX    TMP DP  RH WIND       PRES   REMARKS
JACKSON        CLOUDY    38  35  89 E3        30.09F
LONDON         CLOUDY    39  36  89 CALM      30.09F
SOMERSET       NOT AVBL
MIDDLESBORO    CLOUDY    39  39 100 CALM      30.11F
MONTICELLO     CLOUDY    40  39  97 W9        30.10F WCI  34
$$





USA.gov is the U.S. government's official web portal to all federal, state and local government web resources and services.